Regional Weather Roundup
Issued by NWS Sterling, VA

Home | Current Version | Previous Version | Text Only | Print | Product List | Glossary On
Versions: 1 2 3 4 5 6 7 8 9 10 11 12 13 14 15 16 17 18 19 20 21 22 23 24 25 26 27 28
000
ASUS41 KLWX 221011
RWRLWX

REGIONAL WEATHER ROUNDUP
NATIONAL WEATHER SERVICE BALTIMORE MD/WASHINGTON DC
600 AM EDT FRI SEP 22 2017

Note: "FAIR" indicates few or no clouds below 12,000 feet
with no significant weather and/or obstructions to visibility.
 TC=TEMPERATURE CELSIUS

 * =Non NWS site. Station does not report precipitation (e.g. rain,
    snow, etc.), thunder, or fog.

DCZ001-MDZ009-015-VAZ040>042-051-053>054-221100-
WASHINGTON METRO

CITY           SKY/WX    TMP DP  RH WIND       PRES   REMARKS
WASHINGTON NAT CLOUDY    70  66  87 N7        30.04R
DULLES         CLOUDY    68  63  84 N6        30.05S
ANDREWS AFB    CLOUDY    67  63  85 N7        30.03R
FT BELVOIR     CLOUDY    69  64  84 NW3       30.04R
QUANTICO       CLOUDY    69  65  86 NW7       30.04S
COLLEGE PARK*  CLOUDY    65  64  96 CALM      30.03R
LEESBURG*      CLOUDY    68  64  88 N6        30.07R
MANASSAS*      CLOUDY    63  62  97 CALM      30.06R
GAITHERSBURG*  CLOUDY    65  63  93 VRB3      30.07R

$$

MDZ006>007-011-014-221100-
BALTIMORE METRO

CITY           SKY/WX    TMP DP  RH WIND       PRES   REMARKS
BWI AIRPORT    MOCLDY    67  65  93 W3        30.03R
MD SCIENCE CTR   N/A     74  65  73 MISG      30.04R
MARTIN STATE   PTCLDY    70  66  88 CALM      30.05R
ANNAPOLIS      CLOUDY    74  71  91 N6        30.02R
FORT MEADE*    MOCLDY    63  63 100 CALM      30.06R

$$

MDZ012-015-019>023-221100-
MARYLAND EASTERN SHORE

CITY           SKY/WX    TMP DP  RH WIND       PRES   REMARKS
OCEAN CITY     CLOUDY    68  67  96 NW5       30.00S
SALISBURY      MOCLDY    66  66 100 NE3       30.01R
CAMBRIDGE*     CLEAR     70  68  94 N6        30.01R
EASTON*        CLEAR     68  64  88 NE6       30.05R

$$

MDZ017>025-221100-
SOUTHERN MARYLAND

CITY           SKY/WX    TMP DP  RH WIND       PRES   REMARKS
PATUXENT RIVER CLOUDY    70  68  93 W5        30.01R
ST INIGOES     CLOUDY    71  68  90 CALM      30.00S
LEONARDTOWN*   MOCLDY    68  64  88 W3        30.03S

$$

MDZ003>005-221100-
NORTH CENTRAL MARYLAND

CITY           SKY/WX    TMP DP  RH WIND       PRES   REMARKS
FREDERICK*     FOG       63  63 100 CALM      30.08F VSB 1/2
HAGERSTOWN APT PTCLDY    64  62  93 CALM      30.08R
WESTMINSTER*   PTCLDY    64  63  94 CALM      30.08R

$$

MDZ501>502-221100-
WESTERN MARYLAND

CITY           SKY/WX    TMP DP  RH WIND       PRES   REMARKS
OAKLAND*       CLOUDY    63  54  72 CALM      30.17R
CUMBERLAND*    PTCLDY    59  59 100 NE3       30.15S

$$

VAZ025>031-221100-
SHENANDOAH VALLEY

CITY           SKY/WX    TMP DP  RH WIND       PRES   REMARKS
WINCHESTER*    PTCLDY    57  57 100 CALM      30.09R
FRONT ROYAL*   PTCLDY    61  61 100 CALM      30.08R
LURAY*         CLOUDY    61  61 100 CALM      30.11R
NEW MARKET*    MOCLDY    56  55  95 CALM      30.10S
STAUNTON*      PTCLDY    56  55  99 CALM      30.13R FOG
WAYNESBORO*    MOCLDY    59  59 100 SW5       30.12R

$$

WVZ021-048>050-054>055-221100-
EASTERN WEST VIRGINIA PANHANDLE

CITY           SKY/WX    TMP DP  RH WIND       PRES   REMARKS
MARTINSBURG    PTCLDY    60  58  92 CALM      30.08R
PETERSBURG*    PTCLDY    59  59  98 CALM      30.13R FOG

$$

VAZ036>039-050-221100-
CENTRAL FOOTHILLS

CITY           SKY/WX    TMP DP  RH WIND       PRES   REMARKS
CHARLOTTESVILL PTCLDY    63  62  97 CALM      30.07R
CULPEPER*      CLOUDY    62  62  99 CALM      30.06S
ORANGE*        MOCLDY    63  61  94 CALM      30.06S
GORDONSVILLE*  PTCLDY    62  62 100 CALM      30.06R
WARRENTON*     CLOUDY    61  57  89 CALM      30.05R FOG

$$

VAZ055>057-221100-
NORTH AND CENTRAL PIEDMONT

CITY           SKY/WX    TMP DP  RH WIND       PRES   REMARKS
FREDERICKSBRG* MOCLDY    68  65  90 CALM      30.04R
STAFFORD*      CLOUDY    64  64 100 NW3       30.08S

$$

NCZ024-NYZ072-PAZ021-071-VAZ022-071-221100-
OTHER REGIONAL OBSERVATIONS

CITY           SKY/WX    TMP DP  RH WIND       PRES   REMARKS
NEW YORK CITY  CLOUDY    68  48  48 N8        30.03S
PHILADELPHIA   CLOUDY    71  58  63 N9        30.02S
PITTSBURGH     MOCLDY    62  59  90 CALM      30.13R
ROANOKE        MOCLDY    67  65  93 CALM      30.13R
RICHMOND       CLOUDY    69  65  86 W3        30.04R
RALEIGH        PTCLDY    63  63 100 CALM      30.06S

$$

ANZ530>537-221100-
MARINE OBSERVATIONS

STATION/POSITION TIME  TEMP    WIND        PRES
                       AIR SEA DIR/SP/G
                 (UTC) (F)     (DEG/KT/KT) (MB)
THOMAS PT LIGHT  1000   74 76   30/ 13/ 14   N/A
BALT KEY BRIDGE  0936   73     350/  7/  8 1016.7R
COVE POINT       0936   72     320/  6/  8 1016.7R
LEWISETTA        0936   71 77  280/  8/  9 1016.1S
SOLOMONS ISLAND  0936   72 76  300/  4/  6 1015.8R
PINEY POINT      0948          320/ 12/ 13   N/A

$$





USA.gov is the U.S. government's official web portal to all federal, state and local government web resources and services.